Ketchikan, AK

6:37 AM AKST on December 11, 2017 (GMT -0900)
Ketchikan International

Weather History for PAKT - May, 2014

Change the Weather History Date:

Monday, May 19, 2014

  Actual Average Record
Temperature  
Mean Temperature 50 °F -  
Max Temperature 52 °F 56 °F 79 °F (1956)
Min Temperature 48 °F 41 °F 32 °F (2003)
Degree Days  
Heating Degree Days 15    
Moisture  
Dew Point 47 °F    
Average Humidity 88    
Maximum Humidity 100    
Minimum Humidity 76    
Precipitation  
Precipitation 0.03 in - - ()
Sea Level Pressure  
Sea Level Pressure 29.92 in    
Wind  
Wind Speed 11 mph (SE)    
Max Wind Speed 20 mph    
Max Gust Speed 26 mph    
Visibility 8 miles    
Events Rain    
Averages and records for this station are not official NWS values.
T = Trace of Precipitation, MM = Missing Value Source: NWS Daily Summary

Daily Weather History Graph

Daily Weather History Graph

Search for Another Location

Airport or City:

Trip Planner

Search our weather history database for the weather conditions in past years. The results will help you decide how hot, cold, wet, or windy it might be!

Date:

Astronomy

May. 19, 2014 Rise Set
Actual Time 4:30 AM AKDT 8:57 PM AKDT
Civil Twilight 3:40 AM AKDT 9:48 PM AKDT
Nautical Twilight 2:21 AM AKDT 11:08 PM AKDT
Astronomical Twilight 1:15 AM AKDT Sun does not rise
Moon 12:33 AM AKDT (5/19) 9:55 AM AKDT (5/19)
Length of Visible Light 18h 07m
Length of Day
16h 27m
Waning Gibbous, 69% of the Moon is Illuminated
May 19
Waning Gibbous
May 21
Last Quarter
May 28
New
Jun 5
First Quarter
Jun 12
Full

Hourly Weather History & Observations

Time (AKDT) Temp. Dew Point Humidity Pressure Visibility Wind Dir Wind Speed Gust Speed Precip Events Conditions
12:24 AM 51.8 °F 44.6 °F 76% 29.86 in 10.0 mi NW 4.6 mph - N/A   Overcast
12:53 AM 51.1 °F 45.0 °F 80% 29.87 in 10.0 mi WNW 4.6 mph - N/A   Overcast
1:53 AM 52.0 °F 45.0 °F 77% 29.87 in 10.0 mi NNW 4.6 mph - N/A   Overcast
2:53 AM 51.1 °F 45.0 °F 80% 29.88 in 10.0 mi Calm Calm - N/A   Overcast
3:53 AM 51.1 °F 46.9 °F 86% 29.88 in 10.0 mi ESE 11.5 mph - N/A   Overcast
6:51 AM 51.8 °F 44.6 °F 76% 29.89 in 10.0 mi SE 12.7 mph - N/A   Overcast
6:53 AM 51.1 °F 45.0 °F 80% 29.89 in 10.0 mi SE 12.7 mph - N/A   Overcast
7:51 AM 50.0 °F 44.6 °F 82% 29.89 in 10.0 mi SE 11.5 mph - N/A   Overcast
7:53 AM 50.0 °F 45.0 °F 83% 29.90 in 9.0 mi SE 12.7 mph - N/A   Overcast
8:53 AM 51.1 °F 45.0 °F 80% 29.90 in 10.0 mi ESE 17.3 mph - N/A   Overcast
9:15 AM 50.0 °F 46.4 °F 87% 29.89 in 9.0 mi SE 18.4 mph - N/A   Overcast
9:22 AM 50.0 °F 46.4 °F 87% 29.90 in 7.0 mi SE 17.3 mph - N/A   Overcast
9:53 AM 51.1 °F 46.9 °F 86% 29.91 in 10.0 mi ESE 16.1 mph - N/A   Overcast
10:51 AM 51.8 °F 48.2 °F 88% 29.90 in 10.0 mi SE 16.1 mph 21.9 mph 0.00 in Rain Light Rain
10:53 AM 51.1 °F 48.0 °F 89% 29.91 in 10.0 mi SE 16.1 mph - 0.00 in   Overcast
11:53 AM 52.0 °F 46.9 °F 83% 29.91 in 10.0 mi SE 16.1 mph 25.3 mph 0.00 in   Overcast
12:53 PM 52.0 °F 46.9 °F 83% 29.92 in 10.0 mi SE 16.1 mph 25.3 mph N/A   Overcast
1:53 PM 50.0 °F 48.0 °F 93% 29.94 in 3.0 mi SE 12.7 mph - 0.00 in   Overcast
2:53 PM 51.1 °F 50.0 °F 96% 29.94 in 10.0 mi SE 13.8 mph 20.7 mph 0.00 in   Overcast
3:53 PM 51.1 °F 48.9 °F 92% 29.94 in 6.0 mi SE 18.4 mph 23.0 mph N/A   Overcast
4:51 PM 48.2 °F 48.2 °F 100% 29.93 in 3.0 mi SE 19.6 mph 26.5 mph 0.01 in Rain Light Rain
4:53 PM 50.0 °F 48.0 °F 93% 29.93 in 3.0 mi SE 16.1 mph 26.5 mph 0.01 in Rain Light Rain
5:53 PM 50.0 °F 48.0 °F 93% 29.93 in 10.0 mi SE 18.4 mph 23.0 mph 0.00 in   Overcast
6:53 PM 50.0 °F 48.0 °F 93% 29.94 in 10.0 mi SE 13.8 mph 23.0 mph N/A   Overcast
7:53 PM 50.0 °F 48.0 °F 93% 29.94 in 5.0 mi SE 16.1 mph - N/A   Overcast
9:02 PM 48.2 °F 46.4 °F 93% 29.95 in 9.0 mi SE 8.1 mph - 0.01 in Rain Light Rain
9:11 PM 48.2 °F 46.4 °F 93% 29.95 in 9.0 mi SE 5.8 mph - 0.01 in Rain Light Rain
9:38 PM 48.2 °F 46.4 °F 93% 29.96 in 6.0 mi ESE 11.5 mph - 0.02 in   Overcast
9:45 PM 48.2 °F 46.4 °F 93% 29.96 in 5.0 mi ESE 9.2 mph - 0.02 in   Overcast
9:51 PM 48.2 °F 46.4 °F 93% 29.95 in 6.0 mi SE 13.8 mph - 0.02 in   Overcast
9:53 PM 48.0 °F 46.9 °F 96% 29.96 in 6.0 mi SE 13.8 mph - 0.02 in   Overcast